2020,06,29,00,00,00,176.4,,,,,,,,,,,,,,
2020,06,29,00,01,00,,,,,,,,,,,,,,,
2020,06,29,00,02,00,185.5,,,,,,,,,,,,,,
2020,06,29,00,03,00,192.0,,,,,,,,,,,,,,
2020,06,29,00,04,00,184.1,,,,,,,,,,,,,,
2020,06,29,00,05,00,180.5,,,,,,,,,,,,,,
2020,06,29,00,06,00,176.6,,,,,,,,,,,,,,
2020,06,29,00,07,00,169.6,,,,,,,,,,,,,,
2020,06,29,00,08,00,167.0,,,,,,,,,,,,,,
2020,06,29,00,09,00,166.0,,,,,,,,,,,,,,
2020,06,29,00,10,00,165.0,,,,,,,,,,,,,,
2020,06,29,00,11,00,164.3,,,,,,,,,,,,,,
2020,06,29,00,12,00,160.8,,,,,,,,,,,,,,
2020,06,29,00,13,00,158.3,,,,,,,,,,,,,,
2020,06,29,00,14,00,159.7,,,,,,,,,,,,,,
2020,06,29,00,15,00,161.6,,,,,,,,,,,,,,
2020,06,29,00,16,00,169.0,,,,,,,,,,,,,,
2020,06,29,00,17,00,170.6,,,,,,,,,,,,,,
2020,06,29,00,18,00,173.8,,,,,,,,,,,,,,
2020,06,29,00,19,00,171.4,,,,,,,,,,,,,,
2020,06,29,00,20,00,168.5,,,,,,,,,,,,,,
2020,06,29,00,21,00,168.3,,,,,,,,,,,,,,
2020,06,29,00,22,00,165.0,,,,,,,,,,,,,,
2020,06,29,00,23,00,172.6,,,,,,,,,,,,,,
2020,06,29,00,24,00,167.5,,,,,,,,,,,,,,
2020,06,29,00,25,00,161.0,,,,,,,,,,,,,,
2020,06,29,00,26,00,164.9,,,,,,,,,,,,,,
2020,06,29,00,27,00,172.5,,,,,,,,,,,,,,
2020,06,29,00,28,00,173.7,,,,,,,,,,,,,,
2020,06,29,00,29,00,171.6,,,,,,,,,,,,,,
2020,06,29,00,30,00,175.1,,,,,,,,,,,,,,
2020,06,29,00,31,00,172.0,,,,,,,,,,,,,,
2020,06,29,00,32,00,171.7,,,,,,,,,,,,,,
2020,06,29,00,33,00,172.6,,,,,,,,,,,,,,
2020,06,29,00,34,00,169.7,,,,,,,,,,,,,,
2020,06,29,00,35,00,171.8,,,,,,,,,,,,,,
2020,06,29,00,36,00,183.8,,,,,,,,,,,,,,
2020,06,29,00,37,00,176.6,,,,,,,,,,,,,,
2020,06,29,00,38,00,179.5,,,,,,,,,,,,,,
2020,06,29,00,39,00,180.9,,,,,,,,,,,,,,
2020,06,29,00,40,00,171.3,,,,,,,,,,,,,,
2020,06,29,00,41,00,169.6,,,,,,,,,,,,,,
2020,06,29,00,42,00,169.5,,,,,,,,,,,,,,
2020,06,29,00,43,00,166.7,,,,,,,,,,,,,,
2020,06,29,00,44,00,164.6,,,,,,,,,,,,,,
2020,06,29,00,45,00,155.8,,,,,,,,,,,,,,
2020,06,29,00,46,00,156.4,,,,,,,,,,,,,,
2020,06,29,00,47,00,157.3,,,,,,,,,,,,,,
2020,06,29,00,48,00,158.1,,,,,,,,,,,,,,
2020,06,29,00,49,00,161.3,,,,,,,,,,,,,,
2020,06,29,00,50,00,159.2,,,,,,,,,,,,,,
2020,06,29,00,51,00,156.9,,,,,,,,,,,,,,
2020,06,29,00,52,00,153.0,,,,,,,,,,,,,,
2020,06,29,00,53,00,156.4,,,,,,,,,,,,,,
2020,06,29,00,54,00,152.5,,,,,,,,,,,,,,
2020,06,29,00,55,00,152.1,,,,,,,,,,,,,,
2020,06,29,00,56,00,152.1,,,,,,,,,,,,,,
2020,06,29,00,57,00,152.1,,,,,,,,,,,,,,
2020,06,29,00,58,00,152.1,,,,,,,,,,,,,,
2020,06,29,00,59,00,152.1,,,,,,,,,,,,,,
2020,06,29,01,00,00,158.0,,,,,,,,,,,,,,
2020,06,29,01,01,00,153.8,,,,,,,,,,,,,,
2020,06,29,01,02,00,157.0,,,,,,,,,,,,,,
2020,06,29,01,03,00,152.0,,,,,,,,,,,,,,
2020,06,29,01,04,00,147.9,,,,,,,,,,,,,,
2020,06,29,01,05,00,146.6,,,,,,,,,,,,,,
2020,06,29,01,06,00,148.0,,,,,,,,,,,,,,
2020,06,29,01,07,00,146.4,,,,,,,,,,,,,,
2020,06,29,01,08,00,141.8,,,,,,,,,,,,,,
2020,06,29,01,09,00,143.1,,,,,,,,,,,,,,
2020,06,29,01,10,00,142.9,,,,,,,,,,,,,,
2020,06,29,01,11,00,147.5,,,,,,,,,,,,,,
2020,06,29,01,12,00,146.2,,,,,,,,,,,,,,
2020,06,29,01,13,00,143.6,,,,,,,,,,,,,,
2020,06,29,01,14,00,141.8,,,,,,,,,,,,,,
2020,06,29,01,15,00,141.9,,,,,,,,,,,,,,
2020,06,29,01,16,00,147.7,,,,,,,,,,,,,,
2020,06,29,01,17,00,151.3,,,,,,,,,,,,,,
2020,06,29,01,18,00,143.0,,,,,,,,,,,,,,
2020,06,29,01,19,00,143.0,,,,,,,,,,,,,,
2020,06,29,01,20,00,137.6,,,,,,,,,,,,,,
2020,06,29,01,21,00,134.7,,,,,,,,,,,,,,
2020,06,29,01,22,00,132.7,,,,,,,,,,,,,,
2020,06,29,01,23,00,131.6,,,,,,,,,,,,,,
2020,06,29,01,24,00,129.6,,,,,,,,,,,,,,
2020,06,29,01,25,00,132.9,,,,,,,,,,,,,,
2020,06,29,01,26,00,135.3,,,,,,,,,,,,,,
2020,06,29,01,27,00,140.1,,,,,,,,,,,,,,
2020,06,29,01,28,00,140.1,,,,,,,,,,,,,,
2020,06,29,01,29,00,135.8,,,,,,,,,,,,,,
2020,06,29,01,30,00,136.6,,,,,,,,,,,,,,
2020,06,29,01,31,00,131.7,,,,,,,,,,,,,,
2020,06,29,01,32,00,133.4,,,,,,,,,,,,,,
2020,06,29,01,33,00,132.4,,,,,,,,,,,,,,
2020,06,29,01,34,00,133.7,,,,,,,,,,,,,,
2020,06,29,01,35,00,136.2,,,,,,,,,,,,,,
2020,06,29,01,36,00,136.2,,,,,,,,,,,,,,
2020,06,29,01,37,00,134.5,,,,,,,,,,,,,,
2020,06,29,01,38,00,137.1,,,,,,,,,,,,,,
2020,06,29,01,39,00,137.0,,,,,,,,,,,,,,
2020,06,29,01,40,00,136.3,,,,,,,,,,,,,,
2020,06,29,01,41,00,137.6,,,,,,,,,,,,,,
2020,06,29,01,42,00,140.7,,,,,,,,,,,,,,
2020,06,29,01,43,00,144.9,,,,,,,,,,,,,,
2020,06,29,01,44,00,143.2,,,,,,,,,,,,,,
2020,06,29,01,45,00,148.4,,,,,,,,,,,,,,
2020,06,29,01,46,00,160.5,,,,,,,,,,,,,,
2020,06,29,01,47,00,152.1,,,,,,,,,,,,,,
2020,06,29,01,48,00,156.7,,,,,,,,,,,,,,
2020,06,29,01,49,00,152.2,,,,,,,,,,,,,,
2020,06,29,01,50,00,151.3,,,,,,,,,,,,,,
2020,06,29,01,51,00,152.3,,,,,,,,,,,,,,
2020,06,29,01,52,00,159.7,,,,,,,,,,,,,,
2020,06,29,01,53,00,170.9,,,,,,,,,,,,,,
2020,06,29,01,54,00,174.3,,,,,,,,,,,,,,
2020,06,29,01,55,00,176.7,,,,,,,,,,,,,,
2020,06,29,01,56,00,169.2,,,,,,,,,,,,,,
2020,06,29,01,57,00,175.3,,,,,,,,,,,,,,
2020,06,29,01,58,00,175.7,,,,,,,,,,,,,,
2020,06,29,01,59,00,175.1,,,,,,,,,,,,,,
2020,06,29,02,00,00,176.3,,,,,,,,,,,,,,
2020,06,29,02,01,00,169.1,,,,,,,,,,,,,,
2020,06,29,02,02,00,153.2,,,,,,,,,,,,,,
2020,06,29,02,03,00,162.5,,,,,,,,,,,,,,
2020,06,29,02,04,00,169.2,,,,,,,,,,,,,,
2020,06,29,02,05,00,164.7,,,,,,,,,,,,,,
2020,06,29,02,06,00,166.6,,,,,,,,,,,,,,
2020,06,29,02,07,00,172.4,,,,,,,,,,,,,,
2020,06,29,02,08,00,169.2,,,,,,,,,,,,,,
2020,06,29,02,09,00,172.6,,,,,,,,,,,,,,
2020,06,29,02,10,00,173.2,,,,,,,,,,,,,,
2020,06,29,02,11,00,173.6,,,,,,,,,,,,,,
2020,06,29,02,12,00,179.3,,,,,,,,,,,,,,
2020,06,29,02,13,00,177.4,,,,,,,,,,,,,,
2020,06,29,02,14,00,178.4,,,,,,,,,,,,,,
2020,06,29,02,15,00,185.6,,,,,,,,,,,,,,
2020,06,29,02,16,00,185.0,,,,,,,,,,,,,,
2020,06,29,02,17,00,187.1,,,,,,,,,,,,,,
2020,06,29,02,18,00,197.1,,,,,,,,,,,,,,
2020,06,29,02,19,00,190.1,,,,,,,,,,,,,,
2020,06,29,02,20,00,192.1,,,,,,,,,,,,,,
2020,06,29,02,21,00,191.2,,,,,,,,,,,,,,
2020,06,29,02,22,00,200.8,,,,,,,,,,,,,,
2020,06,29,02,23,00,203.5,,,,,,,,,,,,,,
2020,06,29,02,24,00,208.0,,,,,,,,,,,,,,
2020,06,29,02,25,00,204.1,,,,,,,,,,,,,,
2020,06,29,02,26,00,212.6,,,,,,,,,,,,,,
2020,06,29,02,27,00,207.9,,,,,,,,,,,,,,
2020,06,29,02,28,00,206.2,,,,,,,,,,,,,,
2020,06,29,02,29,00,203.9,,,,,,,,,,,,,,
2020,06,29,02,30,00,208.4,,,,,,,,,,,,,,
2020,06,29,02,31,00,215.1,,,,,,,,,,,,,,
2020,06,29,02,32,00,207.4,,,,,,,,,,,,,,
2020,06,29,02,33,00,203.9,,,,,,,,,,,,,,
2020,06,29,02,34,00,204.5,,,,,,,,,,,,,,
2020,06,29,02,35,00,214.4,,,,,,,,,,,,,,
2020,06,29,02,36,00,218.2,,,,,,,,,,,,,,
2020,06,29,02,37,00,215.3,,,,,,,,,,,,,,
2020,06,29,02,38,00,203.9,,,,,,,,,,,,,,
2020,06,29,02,39,00,203.6,,,,,,,,,,,,,,
2020,06,29,02,40,00,203.6,,,,,,,,,,,,,,
2020,06,29,02,41,00,205.8,,,,,,,,,,,,,,
2020,06,29,02,42,00,203.8,,,,,,,,,,,,,,
2020,06,29,02,43,00,203.2,,,,,,,,,,,,,,
2020,06,29,02,44,00,199.7,,,,,,,,,,,,,,
2020,06,29,02,45,00,202.8,,,,,,,,,,,,,,
2020,06,29,02,46,00,202.1,,,,,,,,,,,,,,
2020,06,29,02,47,00,204.1,,,,,,,,,,,,,,
2020,06,29,02,48,00,203.9,,,,,,,,,,,,,,
2020,06,29,02,49,00,203.8,,,,,,,,,,,,,,
2020,06,29,02,50,00,207.1,,,,,,,,,,,,,,
2020,06,29,02,51,00,203.0,,,,,,,,,,,,,,
2020,06,29,02,52,00,202.8,,,,,,,,,,,,,,
2020,06,29,02,53,00,198.7,,,,,,,,,,,,,,
2020,06,29,02,54,00,198.1,,,,,,,,,,,,,,
2020,06,29,02,55,00,195.5,,,,,,,,,,,,,,
2020,06,29,02,56,00,193.0,,,,,,,,,,,,,,
2020,06,29,02,57,00,196.8,,,,,,,,,,,,,,
2020,06,29,02,58,00,197.2,,,,,,,,,,,,,,
2020,06,29,02,59,00,195.2,,,,,,,,,,,,,,
2020,06,29,03,00,00,184.8,,,,,,,,,,,,,,
2020,06,29,03,01,00,186.2,,,,,,,,,,,,,,
2020,06,29,03,02,00,188.0,,,,,,,,,,,,,,
2020,06,29,03,03,00,184.6,,,,,,,,,,,,,,
2020,06,29,03,04,00,181.6,,,,,,,,,,,,,,
2020,06,29,03,05,00,197.4,,,,,,,,,,,,,,
2020,06,29,03,06,00,199.7,,,,,,,,,,,,,,
2020,06,29,03,07,00,198.7,,,,,,,,,,,,,,
2020,06,29,03,08,00,201.8,,,,,,,,,,,,,,
2020,06,29,03,09,00,193.1,,,,,,,,,,,,,,
2020,06,29,03,10,00,192.4,,,,,,,,,,,,,,
2020,06,29,03,11,00,177.3,,,,,,,,,,,,,,
2020,06,29,03,12,00,199.7,,,,,,,,,,,,,,
2020,06,29,03,13,00,203.3,,,,,,,,,,,,,,
2020,06,29,03,14,00,202.9,,,,,,,,,,,,,,
2020,06,29,03,15,00,204.6,,,,,,,,,,,,,,
2020,06,29,03,16,00,220.1,,,,,,,,,,,,,,
2020,06,29,03,17,00,205.6,,,,,,,,,,,,,,
2020,06,29,03,18,00,201.9,,,,,,,,,,,,,,
2020,06,29,03,19,00,203.9,,,,,,,,,,,,,,
2020,06,29,03,20,00,205.6,,,,,,,,,,,,,,
2020,06,29,03,21,00,204.4,,,,,,,,,,,,,,
2020,06,29,03,22,00,204.0,,,,,,,,,,,,,,
2020,06,29,03,23,00,203.9,,,,,,,,,,,,,,
2020,06,29,03,24,00,209.4,,,,,,,,,,,,,,
2020,06,29,03,25,00,227.7,,,,,,,,,,,,,,
2020,06,29,03,26,00,228.3,,,,,,,,,,,,,,
2020,06,29,03,27,00,228.2,,,,,,,,,,,,,,
2020,06,29,03,28,00,225.7,,,,,,,,,,,,,,
2020,06,29,03,29,00,232.6,,,,,,,,,,,,,,
2020,06,29,03,30,00,231.4,,,,,,,,,,,,,,
2020,06,29,03,31,00,227.0,,,,,,,,,,,,,,
2020,06,29,03,32,00,224.5,,,,,,,,,,,,,,
2020,06,29,03,33,00,225.9,,,,,,,,,,,,,,
2020,06,29,03,34,00,220.2,,,,,,,,,,,,,,
2020,06,29,03,35,00,219.8,,,,,,,,,,,,,,
2020,06,29,03,36,00,221.5,,,,,,,,,,,,,,
2020,06,29,03,37,00,217.8,,,,,,,,,,,,,,
2020,06,29,03,38,00,222.5,,,,,,,,,,,,,,
2020,06,29,03,39,00,228.8,,,,,,,,,,,,,,
2020,06,29,03,40,00,226.1,,,,,,,,,,,,,,
2020,06,29,03,41,00,224.6,,,,,,,,,,,,,,
2020,06,29,03,42,00,225.3,,,,,,,,,,,,,,
2020,06,29,03,43,00,229.1,,,,,,,,,,,,,,
2020,06,29,03,44,00,226.8,,,,,,,,,,,,,,
2020,06,29,03,45,00,227.5,,,,,,,,,,,,,,
2020,06,29,03,46,00,234.1,,,,,,,,,,,,,,
2020,06,29,03,47,00,250.4,,,,,,,,,,,,,,
2020,06,29,03,48,00,244.5,,,,,,,,,,,,,,
2020,06,29,03,49,00,238.2,,,,,,,,,,,,,,
2020,06,29,03,50,00,239.5,,,,,,,,,,,,,,
2020,06,29,03,51,00,245.5,,,,,,,,,,,,,,
2020,06,29,03,52,00,248.9,,,,,,,,,,,,,,
2020,06,29,03,53,00,244.6,,,,,,,,,,,,,,
2020,06,29,03,54,00,252.7,,,,,,,,,,,,,,
2020,06,29,03,55,00,249.3,,,,,,,,,,,,,,
2020,06,29,03,56,00,229.1,,,,,,,,,,,,,,
2020,06,29,03,57,00,225.4,,,,,,,,,,,,,,
2020,06,29,03,58,00,217.2,,,,,,,,,,,,,,
2020,06,29,03,59,00,227.8,,,,,,,,,,,,,,
2020,06,29,04,00,00,239.5,,,,,,,,,,,,,,
2020,06,29,04,01,00,246.7,,,,,,,,,,,,,,
2020,06,29,04,02,00,249.0,,,,,,,,,,,,,,
2020,06,29,04,03,00,251.4,,,,,,,,,,,,,,
2020,06,29,04,04,00,253.5,,,,,,,,,,,,,,
2020,06,29,04,05,00,248.9,,,,,,,,,,,,,,
2020,06,29,04,06,00,249.5,,,,,,,,,,,,,,
2020,06,29,04,07,00,251.6,,,,,,,,,,,,,,
2020,06,29,04,08,00,263.0,,,,,,,,,,,,,,
2020,06,29,04,09,00,257.7,,,,,,,,,,,,,,
2020,06,29,04,10,00,241.3,,,,,,,,,,,,,,
2020,06,29,04,11,00,241.7,,,,,,,,,,,,,,
2020,06,29,04,12,00,245.6,,,,,,,,,,,,,,
2020,06,29,04,13,00,251.2,,,,,,,,,,,,,,
2020,06,29,04,14,00,253.9,,,,,,,,,,,,,,
2020,06,29,04,15,00,248.9,,,,,,,,,,,,,,
2020,06,29,04,16,00,255.2,,,,,,,,,,,,,,
2020,06,29,04,17,00,254.2,,,,,,,,,,,,,,
2020,06,29,04,18,00,251.6,,,,,,,,,,,,,,
2020,06,29,04,19,00,249.7,,,,,,,,,,,,,,
2020,06,29,04,20,00,235.0,,,,,,,,,,,,,,
2020,06,29,04,21,00,212.2,,,,,,,,,,,,,,
2020,06,29,04,22,00,204.5,,,,,,,,,,,,,,
2020,06,29,04,23,00,233.7,,,,,,,,,,,,,,
2020,06,29,04,24,00,237.6,,,,,,,,,,,,,,
2020,06,29,04,25,00,252.3,,,,,,,,,,,,,,
2020,06,29,04,26,00,215.5,,,,,,,,,,,,,,
2020,06,29,04,27,00,217.6,,,,,,,,,,,,,,
2020,06,29,04,28,00,213.5,,,,,,,,,,,,,,
2020,06,29,04,29,00,222.5,,,,,,,,,,,,,,
2020,06,29,04,30,00,210.2,,,,,,,,,,,,,,
2020,06,29,04,31,00,203.4,,,,,,,,,,,,,,
2020,06,29,04,32,00,194.0,,,,,,,,,,,,,,
2020,06,29,04,33,00,191.6,,,,,,,,,,,,,,
2020,06,29,04,34,00,221.1,,,,,,,,,,,,,,
2020,06,29,04,35,00,209.1,,,,,,,,,,,,,,
2020,06,29,04,36,00,207.9,,,,,,,,,,,,,,
2020,06,29,04,37,00,195.0,,,,,,,,,,,,,,
2020,06,29,04,38,00,195.0,,,,,,,,,,,,,,
2020,06,29,04,39,00,164.4,,,,,,,,,,,,,,
2020,06,29,04,40,00,160.0,,,,,,,,,,,,,,
2020,06,29,04,41,00,216.8,,,,,,,,,,,,,,
2020,06,29,04,42,00,202.7,,,,,,,,,,,,,,
2020,06,29,04,43,00,226.0,,,,,,,,,,,,,,
2020,06,29,04,44,00,229.2,,,,,,,,,,,,,,
2020,06,29,04,45,00,212.8,,,,,,,,,,,,,,
2020,06,29,04,46,00,207.6,,,,,,,,,,,,,,
2020,06,29,04,47,00,221.7,,,,,,,,,,,,,,
2020,06,29,04,48,00,191.2,,,,,,,,,,,,,,
2020,06,29,04,49,00,200.6,,,,,,,,,,,,,,
2020,06,29,04,50,00,242.0,,,,,,,,,,,,,,
2020,06,29,04,51,00,215.6,,,,,,,,,,,,,,
2020,06,29,04,52,00,246.9,,,,,,,,,,,,,,
2020,06,29,04,53,00,241.0,,,,,,,,,,,,,,
2020,06,29,04,54,00,229.3,,,,,,,,,,,,,,
2020,06,29,04,55,00,217.0,,,,,,,,,,,,,,
2020,06,29,04,56,00,192.4,,,,,,,,,,,,,,
2020,06,29,04,57,00,199.7,,,,,,,,,,,,,,
2020,06,29,04,58,00,201.1,,,,,,,,,,,,,,
2020,06,29,04,59,00,188.8,,,,,,,,,,,,,,
2020,06,29,05,00,00,240.7,,,,,,,,,,,,,,
2020,06,29,05,01,00,182.7,,,,,,,,,,,,,,
2020,06,29,05,02,00,196.0,,,,,,,,,,,,,,
2020,06,29,05,03,00,212.3,,,,,,,,,,,,,,
2020,06,29,05,04,00,214.9,,,,,,,,,,,,,,
2020,06,29,05,05,00,212.0,,,,,,,,,,,,,,
2020,06,29,05,06,00,179.1,,,,,,,,,,,,,,
2020,06,29,05,07,00,221.9,,,,,,,,,,,,,,
2020,06,29,05,08,00,240.4,,,,,,,,,,,,,,
2020,06,29,05,09,00,219.8,,,,,,,,,,,,,,
2020,06,29,05,10,00,178.2,,,,,,,,,,,,,,
2020,06,29,05,11,00,155.3,,,,,,,,,,,,,,
2020,06,29,05,12,00,171.4,,,,,,,,,,,,,,
2020,06,29,05,13,00,167.2,,,,,,,,,,,,,,
2020,06,29,05,14,00,182.8,,,,,,,,,,,,,,
2020,06,29,05,15,00,234.8,,,,,,,,,,,,,,
2020,06,29,05,16,00,254.0,,,,,,,,,,,,,,
2020,06,29,05,17,00,263.7,,,,,,,,,,,,,,
2020,06,29,05,18,00,268.4,,,,,,,,,,,,,,
2020,06,29,05,19,00,258.4,,,,,,,,,,,,,,
2020,06,29,05,20,00,175.4,,,,,,,,,,,,,,
2020,06,29,05,21,00,148.1,,,,,,,,,,,,,,
2020,06,29,05,22,00,232.8,,,,,,,,,,,,,,
2020,06,29,05,23,00,236.8,,,,,,,,,,,,,,
2020,06,29,05,24,00,234.6,,,,,,,,,,,,,,
2020,06,29,05,25,00,262.8,,,,,,,,,,,,,,
2020,06,29,05,26,00,282.1,,,,,,,,,,,,,,
2020,06,29,05,27,00,265.5,,,,,,,,,,,,,,
2020,06,29,05,28,00,254.6,,,,,,,,,,,,,,
2020,06,29,05,29,00,167.4,,,,,,,,,,,,,,
2020,06,29,05,30,00,194.7,,,,,,,,,,,,,,
2020,06,29,05,31,00,240.6,,,,,,,,,,,,,,
2020,06,29,05,32,00,225.8,,,,,,,,,,,,,,
2020,06,29,05,33,00,206.5,,,,,,,,,,,,,,
2020,06,29,05,34,00,220.3,,,,,,,,,,,,,,
2020,06,29,05,35,00,195.1,,,,,,,,,,,,,,
2020,06,29,05,36,00,244.7,,,,,,,,,,,,,,
2020,06,29,05,37,00,248.9,,,,,,,,,,,,,,
2020,06,29,05,38,00,272.0,,,,,,,,,,,,,,
2020,06,29,05,39,00,280.2,,,,,,,,,,,,,,
2020,06,29,05,40,00,270.0,,,,,,,,,,,,,,
2020,06,29,05,41,00,283.0,,,,,,,,,,,,,,
2020,06,29,05,42,00,288.4,,,,,,,,,,,,,,
2020,06,29,05,43,00,284.4,,,,,,,,,,,,,,
2020,06,29,05,44,00,236.1,,,,,,,,,,,,,,
2020,06,29,05,45,00,272.1,,,,,,,,,,,,,,
2020,06,29,05,46,00,319.1,,,,,,,,,,,,,,
2020,06,29,05,47,00,281.1,,,,,,,,,,,,,,
2020,06,29,05,48,00,296.7,,,,,,,,,,,,,,
2020,06,29,05,49,00,277.7,,,,,,,,,,,,,,
2020,06,29,05,50,00,295.9,,,,,,,,,,,,,,
2020,06,29,05,51,00,264.2,,,,,,,,,,,,,,
2020,06,29,05,52,00,235.7,,,,,,,,,,,,,,
2020,06,29,05,53,00,267.2,,,,,,,,,,,,,,
2020,06,29,05,54,00,253.7,,,,,,,,,,,,,,
2020,06,29,05,55,00,274.9,,,,,,,,,,,,,,
2020,06,29,05,56,00,314.0,,,,,,,,,,,,,,
2020,06,29,05,57,00,317.5,,,,,,,,,,,,,,
2020,06,29,05,58,00,314.7,,,,,,,,,,,,,,
2020,06,29,05,59,00,282.6,,,,,,,,,,,,,,
2020,06,29,06,00,00,282.4,,,,,,,,,,,,,,
2020,06,29,06,01,00,310.4,,,,,,,,,,,,,,
2020,06,29,06,02,00,285.4,,,,,,,,,,,,,,
2020,06,29,06,03,00,317.3,,,,,,,,,,,,,,
2020,06,29,06,04,00,324.4,,,,,,,,,,,,,,
2020,06,29,06,05,00,275.8,,,,,,,,,,,,,,
2020,06,29,06,06,00,325.0,,,,,,,,,,,,,,
2020,06,29,06,07,00,293.8,,,,,,,,,,,,,,
2020,06,29,06,08,00,291.0,,,,,,,,,,,,,,
2020,06,29,06,09,00,288.7,,,,,,,,,,,,,,
2020,06,29,06,10,00,301.8,,,,,,,,,,,,,,
2020,06,29,06,11,00,326.0,,,,,,,,,,,,,,
2020,06,29,06,12,00,311.1,,,,,,,,,,,,,,
2020,06,29,06,13,00,322.8,,,,,,,,,,,,,,
2020,06,29,06,14,00,327.7,,,,,,,,,,,,,,
2020,06,29,06,15,00,336.3,,,,,,,,,,,,,,
2020,06,29,06,16,00,341.1,,,,,,,,,,,,,,
2020,06,29,06,17,00,324.7,,,,,,,,,,,,,,
2020,06,29,06,18,00,350.8,,,,,,,,,,,,,,
2020,06,29,06,19,00,340.1,,,,,,,,,,,,,,
2020,06,29,06,20,00,313.7,,,,,,,,,,,,,,
2020,06,29,06,21,00,327.5,,,,,,,,,,,,,,
2020,06,29,06,22,00,329.8,,,,,,,,,,,,,,
2020,06,29,06,23,00,326.5,,,,,,,,,,,,,,
2020,06,29,06,24,00,346.7,,,,,,,,,,,,,,
2020,06,29,06,25,00,363.2,,,,,,,,,,,,,,
2020,06,29,06,26,00,357.8,,,,,,,,,,,,,,
2020,06,29,06,27,00,346.9,,,,,,,,,,,,,,
2020,06,29,06,28,00,328.0,,,,,,,,,,,,,,
2020,06,29,06,29,00,360.7,,,,,,,,,,,,,,
2020,06,29,06,30,00,347.8,,,,,,,,,,,,,,
2020,06,29,06,31,00,318.2,,,,,,,,,,,,,,
2020,06,29,06,32,00,345.5,,,,,,,,,,,,,,
2020,06,29,06,33,00,344.3,,,,,,,,,,,,,,
2020,06,29,06,34,00,338.5,,,,,,,,,,,,,,
2020,06,29,06,35,00,336.6,,,,,,,,,,,,,,
2020,06,29,06,36,00,315.2,,,,,,,,,,,,,,
2020,06,29,06,37,00,308.4,,,,,,,,,,,,,,
2020,06,29,06,38,00,302.5,,,,,,,,,,,,,,
2020,06,29,06,39,00,261.2,,,,,,,,,,,,,,
2020,06,29,06,40,00,300.4,,,,,,,,,,,,,,
2020,06,29,06,41,00,327.1,,,,,,,,,,,,,,
2020,06,29,06,42,00,260.3,,,,,,,,,,,,,,
2020,06,29,06,43,00,305.9,,,,,,,,,,,,,,
2020,06,29,06,44,00,331.9,,,,,,,,,,,,,,
2020,06,29,06,45,00,230.0,,,,,,,,,,,,,,
2020,06,29,06,46,00,241.8,,,,,,,,,,,,,,
2020,06,29,06,47,00,277.8,,,,,,,,,,,,,,
2020,06,29,06,48,00,312.9,,,,,,,,,,,,,,
2020,06,29,06,49,00,297.5,,,,,,,,,,,,,,
2020,06,29,06,50,00,307.3,,,,,,,,,,,,,,
2020,06,29,06,51,00,300.6,,,,,,,,,,,,,,
2020,06,29,06,52,00,284.0,,,,,,,,,,,,,,
2020,06,29,06,53,00,296.9,,,,,,,,,,,,,,
2020,06,29,06,54,00,330.9,,,,,,,,,,,,,,
2020,06,29,06,55,00,332.3,,,,,,,,,,,,,,
2020,06,29,06,56,00,335.1,,,,,,,,,,,,,,
2020,06,29,06,57,00,337.3,,,,,,,,,,,,,,
2020,06,29,06,58,00,333.1,,,,,,,,,,,,,,
2020,06,29,06,59,00,342.1,,,,,,,,,,,,,,
2020,06,29,07,00,00,331.7,,,,,,,,,,,,,,
2020,06,29,07,01,00,334.2,,,,,,,,,,,,,,
2020,06,29,07,02,00,319.6,,,,,,,,,,,,,,
2020,06,29,07,03,00,314.1,,,,,,,,,,,,,,
2020,06,29,07,04,00,310.5,,,,,,,,,,,,,,
2020,06,29,07,05,00,311.9,,,,,,,,,,,,,,
2020,06,29,07,06,00,296.9,,,,,,,,,,,,,,
2020,06,29,07,07,00,306.6,,,,,,,,,,,,,,
2020,06,29,07,08,00,298.0,,,,,,,,,,,,,,
2020,06,29,07,09,00,302.0,,,,,,,,,,,,,,
2020,06,29,07,10,00,345.5,,,,,,,,,,,,,,
2020,06,29,07,11,00,309.9,,,,,,,,,,,,,,
2020,06,29,07,12,00,348.1,,,,,,,,,,,,,,
2020,06,29,07,13,00,311.9,,,,,,,,,,,,,,
2020,06,29,07,14,00,320.7,,,,,,,,,,,,,,
2020,06,29,07,15,00,318.0,,,,,,,,,,,,,,
2020,06,29,07,16,00,301.0,,,,,,,,,,,,,,
2020,06,29,07,17,00,324.0,,,,,,,,,,,,,,
2020,06,29,07,18,00,227.5,,,,,,,,,,,,,,
2020,06,29,07,19,00,288.3,,,,,,,,,,,,,,
2020,06,29,07,20,00,314.9,,,,,,,,,,,,,,
2020,06,29,07,21,00,303.4,,,,,,,,,,,,,,
2020,06,29,07,22,00,342.9,,,,,,,,,,,,,,
2020,06,29,07,23,00,265.9,,,,,,,,,,,,,,
2020,06,29,07,24,00,345.7,,,,,,,,,,,,,,
2020,06,29,07,25,00,358.6,,,,,,,,,,,,,,
2020,06,29,07,26,00,273.3,,,,,,,,,,,,,,
2020,06,29,07,27,00,204.4,,,,,,,,,,,,,,
2020,06,29,07,28,00,303.2,,,,,,,,,,,,,,
2020,06,29,07,29,00,260.9,,,,,,,,,,,,,,
2020,06,29,07,30,00,275.4,,,,,,,,,,,,,,
2020,06,29,07,31,00,239.8,,,,,,,,,,,,,,
2020,06,29,07,32,00,304.1,,,,,,,,,,,,,,
2020,06,29,07,33,00,277.7,,,,,,,,,,,,,,
2020,06,29,07,34,00,289.2,,,,,,,,,,,,,,
2020,06,29,07,35,00,276.3,,,,,,,,,,,,,,
2020,06,29,07,36,00,252.6,,,,,,,,,,,,,,
2020,06,29,07,37,00,259.1,,,,,,,,,,,,,,
2020,06,29,07,38,00,229.8,,,,,,,,,,,,,,
2020,06,29,07,39,00,263.1,,,,,,,,,,,,,,
2020,06,29,07,40,00,295.4,,,,,,,,,,,,,,
2020,06,29,07,41,00,303.8,,,,,,,,,,,,,,
2020,06,29,07,42,00,293.8,,,,,,,,,,,,,,
2020,06,29,07,43,00,313.4,,,,,,,,,,,,,,
2020,06,29,07,44,00,309.3,,,,,,,,,,,,,,
2020,06,29,07,45,00,288.0,,,,,,,,,,,,,,
2020,06,29,07,46,00,286.4,,,,,,,,,,,,,,
2020,06,29,07,47,00,307.5,,,,,,,,,,,,,,
2020,06,29,07,48,00,317.0,,,,,,,,,,,,,,
2020,06,29,07,49,00,306.6,,,,,,,,,,,,,,
2020,06,29,07,50,00,358.1,,,,,,,,,,,,,,
2020,06,29,07,51,00,377.3,,,,,,,,,,,,,,
2020,06,29,07,52,00,372.6,,,,,,,,,,,,,,
2020,06,29,07,53,00,338.4,,,,,,,,,,,,,,
2020,06,29,07,54,00,331.3,,,,,,,,,,,,,,
2020,06,29,07,55,00,287.6,,,,,,,,,,,,,,
2020,06,29,07,56,00,306.5,,,,,,,,,,,,,,
2020,06,29,07,57,00,289.7,,,,,,,,,,,,,,
2020,06,29,07,58,00,288.6,,,,,,,,,,,,,,
2020,06,29,07,59,00,320.7,,,,,,,,,,,,,,
2020,06,29,08,00,00,300.2,,,,,,,,,,,,,,
2020,06,29,08,01,00,216.4,,,,,,,,,,,,,,
2020,06,29,08,02,00,186.0,,,,,,,,,,,,,,
2020,06,29,08,03,00,273.7,,,,,,,,,,,,,,
2020,06,29,08,04,00,257.4,,,,,,,,,,,,,,
2020,06,29,08,05,00,261.7,,,,,,,,,,,,,,
2020,06,29,08,06,00,267.6,,,,,,,,,,,,,,
2020,06,29,08,07,00,291.6,,,,,,,,,,,,,,
2020,06,29,08,08,00,289.1,,,,,,,,,,,,,,
2020,06,29,08,09,00,298.6,,,,,,,,,,,,,,
2020,06,29,08,10,00,325.8,,,,,,,,,,,,,,
2020,06,29,08,11,00,345.2,,,,,,,,,,,,,,
2020,06,29,08,12,00,372.5,,,,,,,,,,,,,,
2020,06,29,08,13,00,396.2,,,,,,,,,,,,,,
2020,06,29,08,14,00,354.7,,,,,,,,,,,,,,
2020,06,29,08,15,00,331.0,,,,,,,,,,,,,,
2020,06,29,08,16,00,316.3,,,,,,,,,,,,,,
2020,06,29,08,17,00,297.4,,,,,,,,,,,,,,
2020,06,29,08,18,00,302.4,,,,,,,,,,,,,,
2020,06,29,08,19,00,301.0,,,,,,,,,,,,,,
2020,06,29,08,20,00,275.8,,,,,,,,,,,,,,
2020,06,29,08,21,00,245.1,,,,,,,,,,,,,,
2020,06,29,08,22,00,223.0,,,,,,,,,,,,,,
2020,06,29,08,23,00,203.2,,,,,,,,,,,,,,
2020,06,29,08,24,00,174.9,,,,,,,,,,,,,,
2020,06,29,08,25,00,208.9,,,,,,,,,,,,,,
2020,06,29,08,26,00,167.1,,,,,,,,,,,,,,
2020,06,29,08,27,00,231.7,,,,,,,,,,,,,,
2020,06,29,08,28,00,212.2,,,,,,,,,,,,,,
2020,06,29,08,29,00,139.6,,,,,,,,,,,,,,
2020,06,29,08,30,00,144.1,,,,,,,,,,,,,,
2020,06,29,08,31,00,155.2,,,,,,,,,,,,,,
2020,06,29,08,32,00,214.0,,,,,,,,,,,,,,
2020,06,29,08,33,00,218.3,,,,,,,,,,,,,,
2020,06,29,08,34,00,219.8,,,,,,,,,,,,,,
2020,06,29,08,35,00,256.0,,,,,,,,,,,,,,
2020,06,29,08,36,00,228.3,,,,,,,,,,,,,,
2020,06,29,08,37,00,220.1,,,,,,,,,,,,,,
2020,06,29,08,38,00,240.1,,,,,,,,,,,,,,
2020,06,29,08,39,00,244.0,,,,,,,,,,,,,,
2020,06,29,08,40,00,220.0,,,,,,,,,,,,,,
2020,06,29,08,41,00,132.2,,,,,,,,,,,,,,
2020,06,29,08,42,00,126.1,,,,,,,,,,,,,,
2020,06,29,08,43,00,92.1,,,,,,,,,,,,,,
2020,06,29,08,44,00,44.0,,,,,,,,,,,,,,
2020,06,29,08,45,00,134.0,,,,,,,,,,,,,,
2020,06,29,08,46,00,158.4,,,,,,,,,,,,,,
2020,06,29,08,47,00,174.4,,,,,,,,,,,,,,
2020,06,29,08,48,00,141.1,,,,,,,,,,,,,,
2020,06,29,08,49,00,175.6,,,,,,,,,,,,,,
2020,06,29,08,50,00,165.1,,,,,,,,,,,,,,
2020,06,29,08,51,00,163.5,,,,,,,,,,,,,,
2020,06,29,08,52,00,169.9,,,,,,,,,,,,,,
2020,06,29,08,53,00,172.3,,,,,,,,,,,,,,
2020,06,29,08,54,00,138.4,,,,,,,,,,,,,,
2020,06,29,08,55,00,56.1,,,,,,,,,,,,,,
2020,06,29,08,56,00,129.7,,,,,,,,,,,,,,
2020,06,29,08,57,00,136.4,,,,,,,,,,,,,,
2020,06,29,08,58,00,70.6,,,,,,,,,,,,,,
2020,06,29,08,59,00,,,,,,,,,,,,,,,
2020,06,29,09,00,00,,,,,,,,,,,,,,,
2020,06,29,09,01,00,191.4,,,,,,,,,,,,,,
2020,06,29,09,02,00,197.5,,,,,,,,,,,,,,
2020,06,29,09,03,00,208.1,,,,,,,,,,,,,,
2020,06,29,09,04,00,156.8,,,,,,,,,,,,,,
2020,06,29,09,05,00,170.6,,,,,,,,,,,,,,
2020,06,29,09,06,00,156.2,,,,,,,,,,,,,,
2020,06,29,09,07,00,170.3,,,,,,,,,,,,,,
2020,06,29,09,08,00,172.5,,,,,,,,,,,,,,
2020,06,29,09,09,00,149.8,,,,,,,,,,,,,,
2020,06,29,09,10,00,166.9,,,,,,,,,,,,,,
2020,06,29,09,11,00,173.1,,,,,,,,,,,,,,
2020,06,29,09,12,00,161.8,,,,,,,,,,,,,,
2020,06,29,09,13,00,133.4,,,,,,,,,,,,,,
2020,06,29,09,14,00,152.2,,,,,,,,,,,,,,
2020,06,29,09,15,00,120.5,,,,,,,,,,,,,,
2020,06,29,09,16,00,127.6,,,,,,,,,,,,,,
2020,06,29,09,17,00,120.6,,,,,,,,,,,,,,
2020,06,29,09,18,00,79.5,,,,,,,,,,,,,,
2020,06,29,09,19,00,60.9,,,,,,,,,,,,,,
2020,06,29,09,20,00,109.0,,,,,,,,,,,,,,
2020,06,29,09,21,00,189.4,,,,,,,,,,,,,,
2020,06,29,09,22,00,198.3,,,,,,,,,,,,,,
2020,06,29,09,23,00,102.9,,,,,,,,,,,,,,
2020,06,29,09,24,00,126.7,,,,,,,,,,,,,,
2020,06,29,09,25,00,134.2,,,,,,,,,,,,,,
2020,06,29,09,26,00,120.0,,,,,,,,,,,,,,
2020,06,29,09,27,00,119.3,,,,,,,,,,,,,,
2020,06,29,09,28,00,74.3,,,,,,,,,,,,,,
2020,06,29,09,29,00,77.3,,,,,,,,,,,,,,
2020,06,29,09,30,00,131.6,,,,,,,,,,,,,,
2020,06,29,09,31,00,127.3,,,,,,,,,,,,,,
2020,06,29,09,32,00,123.0,,,,,,,,,,,,,,
2020,06,29,09,33,00,146.0,,,,,,,,,,,,,,
2020,06,29,09,34,00,155.1,,,,,,,,,,,,,,
2020,06,29,09,35,00,126.8,,,,,,,,,,,,,,
2020,06,29,09,36,00,135.4,,,,,,,,,,,,,,
2020,06,29,09,37,00,114.8,,,,,,,,,,,,,,
2020,06,29,09,38,00,107.5,,,,,,,,,,,,,,
2020,06,29,09,39,00,82.1,,,,,,,,,,,,,,
2020,06,29,09,40,00,88.1,,,,,,,,,,,,,,
2020,06,29,09,41,00,78.7,,,,,,,,,,,,,,
2020,06,29,09,42,00,68.4,,,,,,,,,,,,,,
2020,06,29,09,43,00,62.7,,,,,,,,,,,,,,
2020,06,29,09,44,00,69.5,,,,,,,,,,,,,,
2020,06,29,09,45,00,49.5,,,,,,,,,,,,,,